Regional Weather Roundup
Issued by NWS

Home | Current Version | Previous Version | Graphics & Text | Print | Product List | Glossary On
Versions: 1 2 3 4 5 6 7 8 9 10 11 12 13 14 15 16 17 18 19 20 21 22 23 24 25 26 27
000
ASUS45 KTFX 300310
RWRMT
MONTANA REGIONAL WEATHER ROUNDUP
NATIONAL WEATHER SERVICE GREAT FALLS MT
900 PM MDT SUN MAY 29 2016

NOTE: "FAIR" INDICATES FEW OR NO CLOUDS BELOW 12000 FEET WITH NO
SIGNIFICANT WEATHER AND/OR OBSTRUCTIONS TO VISIBILITY.

MTZ001>007-043-300400-
WEST OF THE DIVIDE

CITY           SKY/WX    TMP DP  RH WIND       PRES   REMARKS
KALISPELL      CLEAR     57  44  62 SE8       29.91S
MISSOULA       MOCLDY    62  46  55 S5        29.97R
BUTTE          CLOUDY    59  33  37 W7        30.02R
MULLAN PASS    CLEAR     46  31  55 VRB6      30.05R
ANACONDA         N/A     54  41  62 W5        30.02R
DEER LODGE       N/A     55  39  54 N5        30.03R
EUREKA           N/A     57  45  62 N6        29.93
HAMILTON         N/A     57  45  62 N12       30.00R
LIBBY            N/A     64  36  34 S5        29.92S
$$

MTZ008-052>055-300400-
SOUTHWEST MONTANA

CITY           SKY/WX    TMP DP  RH WIND       PRES   REMARKS
BOZEMAN        PTCLDY    60  42  51 SE6       29.95R
DILLON         MOCLDY    63  32  31 S9        29.97R
W YELLOWSTONE  CLOUDY    55  32  41 SW6       30.09S
ENNIS          PTCLDY    61  34  36 S15G21    30.05S
$$

MTZ009-010-012-014-046-048-049-054-300400-
EAST SLOPES AND CENTRAL MONTANA

CITY           SKY/WX    TMP DP  RH WIND       PRES   REMARKS
CUT BANK         N/A     54  41  61 SW8       29.93R
GREAT FALLS    PTCLDY    57  42  57 N9        29.97R
MALMSTROM AFB  PTCLDY    60  43  53 N9        29.96R
HELENA         LGT RAIN  64  42  44 W14       29.98R
CHOTEAU          N/A     55  45  67 CALM      29.98R
$$

MTZ011-013-016-021-045-047-050-051-300400-
NORTH CENTRAL MONTANA

CITY           SKY/WX    TMP DP  RH WIND       PRES   REMARKS
HAVRE          CLOUDY    59  46  62 NW13      29.92R
LEWISTOWN      MOCLDY    64  40  41 NW5       29.98R
N BAR RANCH    MOCLDY    59  39  47 VRB6      30.01R
CHINOOK          N/A     64  43  45 NW9       29.90S
$$

MTZ017>020-022>027-061-062-300400-
NORTHEAST MONTANA

CITY           SKY/WX    TMP DP  RH WIND       PRES   REMARKS
GLASGOW        CLEAR     68  38  33 NW3       29.90S
JORDAN           N/A     60  48  64 NE7       29.92R
SIDNEY         CLEAR     64  43  46 NW6       29.92R
WOLF POINT     CLEAR     62  43  49 CALM      29.90S
POPLAR           N/A     70  37  30 W3        29.91S
$$

MTZ028>42-056>058-300400-
SOUTHCENTRAL AND SOUTHEAST MONTANA

CITY           SKY/WX    TMP DP  RH WIND       PRES   REMARKS
BAKER          CLEAR     66  43  43 CALM      29.97R
BILLINGS       PTCLDY    68  43  40 E7        29.93R
LIVINGSTON     CLEAR     60  40  47 SE8       29.95S
MILES CITY     CLEAR     68  43  40 NE7       29.92R
FORSYTH          N/A     66  48  52 SE5       29.91R
$$

REGIONAL REPORTS...DAKOTAS

CITY           SKY/WX    TMP DP  RH WIND       PRES   REMARKS
WILLISTON      CLEAR     59  44  57 CALM      29.92R
MINOT          CLEAR     65  42  43 CALM      29.91S
DICKINSON      CLOUDY    64  40  41 E5        29.94R
BEACH            N/A     61  41  48 CALM      29.99R
CROSBY           N/A     57  46  67 W5        29.93S
WATFORD CITY     N/A     63  41  45 CALM      29.94R
BISMARCK       CLEAR     67  49  52 CALM      29.94S
GRAND FORKS    CLEAR     60  51  72 SW3       29.91R
FARGO          CLEAR     64  50  60 CALM      29.92R
BUFFALO SD       N/A     63  51  65 SE9       29.91R
RAPID CITY     CLEAR     61  53  75 E10       29.98R
$$

REGIONAL REPORTS...WYOMING/IDAHO/WASHINGTON

CITY           SKY/WX    TMP DP  RH WIND       PRES   REMARKS
GILLETTE       CLEAR     51  46  83 S5        29.98S
SHERIDAN       CLOUDY    64  48  56 S3        29.95R
BUFFALO WY     CLEAR     58  45  62 W7        30.00R
CODY           CLOUDY    66  32  28 SW6       29.98R
YELLOWSTONE LA   N/A     47  34  60 CALM      30.18R
IDAHO FALLS    CLOUDY    65  39  38 S12       30.01R
SALMON         CLOUDY    66  27  22 W6        29.91S
BOISE          CLEAR     75  30  19 N5        29.92S
SPOKANE        MOCLDY    66  32  28 W22G30    29.97R
$$

REGIONAL REPORTS...ALBERTA

CITY           SKY/WX    TMP DP  RH WIND       PRES   REMARKS
EDMONTON       RAIN      50  45  81 NW10      29.95R
CALGARY        LGT RAIN  48  41  76 NW20      29.94R
LETHBRIDGE     MOCLDY    61  41  48 W25       29.87R
MEDICINE HAT   MOCLDY    63  45  51 S8        29.84R
WATERTON GATE    N/A     52  39  62 SW3         N/A
MILK RIVER       N/A     57  39  51 SW10        N/A
$$

REGIONAL REPORTS...SASKATCHEWAN

CITY           SKY/WX    TMP DP  RH WIND       PRES   REMARKS
SWIFT CURRENT  CLEAR     61  46  59 W8        29.87R
REGINA         PTCLDY    63  43  48 NW3       29.89R
SASKATOON      PTCLDY    59  48  67 NE10      29.89R
VAL MARIE        N/A     59  43  55 SW3         N/A
ROCKGLEN         N/A     61  43  51 SW3         N/A
$$




USA.gov is the U.S. government's official web portal to all federal, state and local government web resources and services.